Regional Weather Roundup
Issued by NWS

Home | Current Version | Previous Version | Text Only | Print | Product List | Glossary Off
Versions: 1 2 3 4 5 6 7 8 9 10 11 12 13 14 15 16 17 18 19 20 21 22 23 24 25 26 27 28 29 30 31 32 33 34 35 36 37 38 39 40 41 42 43 44 45 46 47 48 49 50

000
ASUS43 KMKX 290459
RWRWI

WISCONSIN REGIONAL WEATHER ROUNDUP
NATIONAL WEATHER SERVICE MILWAUKEE/SULLIVAN WI
1100 PM CST WED JAN 28 2015

NOTE: "FAIR" INDICATES FEW OR NO CLOUDS BELOW 12,000 FEET WITH NO
SIGNIFICANT WEATHER AND/OR OBSTRUCTIONS TO VISIBILITY.

WIZ001-002-006>008-014>016-023>028-290600-
NORTHWEST WISCONSIN

CITY           SKY/WX    TMP DP  RH WIND       PRES   REMARKS
SUPERIOR ARPT  CLOUDY    30  28  90 W5        29.85S FOG     WCI  25
ASHLAND        CLOUDY    29  25  85 SW7       29.84S FOG     WCI  22
HAYWARD        FOG       27  25  92 CALM      29.82S VSB 3/4
SIREN          CLOUDY    29  29  99 N5        29.85R FOG     WCI  24
CUMBERLAND     FOG       27  27 100 NW3       29.82R VSB 1
RICE LAKE      CLOUDY    28  26  93 CALM      29.83S FOG
CHETEK         CLOUDY    28  25  89 E6        29.82S FOG     WCI  21
LADYSMITH      CLOUDY    28  24  86 CALM      29.82F
EAU CLAIRE     NOT AVBL
MENOMONIE      CLOUDY    30  26  84 CALM      29.82S FOG
NEW RICHMOND   CLOUDY    29  29 100 NW5       29.84R FOG     WCI  24
OSCEOLA        FOG       30  30 100 NW3       29.87R VSB 1
$$

WIZ003>005-009-010-017-018-290600-
NORTH CENTRAL WISCONSIN

CITY           SKY/WX    TMP DP  RH WIND       PRES   REMARKS
MANITOWISH WTR CLOUDY    26  21  82 S3        29.79S
ARBOR VITAE    CLOUDY    28  22  78 S5        29.79F WCI  23
WOODRUFF       CLOUDY    28  22  78 S5        29.79F WCI  23
RHINELANDER    CLOUDY    26  20  77 S3        29.79F
EAGLE RIVER    CLOUDY    26  20  77 CALM      29.79F
LAND O LAKES   CLOUDY    27  22  80 S3        29.80F
PHILLIPS       CLOUDY    27  21  79 S3        29.79S
TOMAHAWK       CLOUDY    26  20  79 CALM      29.80F
MEDFORD        CLOUDY    26  21  83 S6        29.79F WCI  19
MERRILL        CLOUDY    27  22  79 S3        29.81S
$$

WIZ029-030-035-036-043>047-290600-
CENTRAL WISCONSIN

CITY           SKY/WX    TMP DP  RH WIND       PRES   REMARKS
WAUSAU         CLOUDY    27  21  78 SE8       29.80F WCI  19
MOSINEE        CLOUDY    28  23  80 E5        29.82F WCI  23
MARSHFIELD     CLOUDY    27  22  81 SE6       29.80F HAZE    WCI  20
STEVENS POINT  CLOUDY    26  20  79 E3        29.83F
WAUPACA        CLOUDY    30  23  74 E3        29.85S
WAUTOMA        NOT AVBL
WISC RAPIDS    CLOUDY    28  20  71 E3        29.82F
CAMP DOUGLAS   NOT AVBL
$$

WIZ011>013-019>022-031-037>040-048>050-290600-
NORTHEAST WISCONSIN

CITY           SKY/WX    TMP DP  RH WIND       PRES   REMARKS
ANTIGO         CLOUDY    25  22  87 S12       29.81F WCI  14
SHAWANO        CLOUDY    32  25  76 CALM      29.86F
OCONTO         CLOUDY    31  25  78 MISG      29.86F
STURGEON BAY   CLOUDY    32  23  69 S14G23    29.88F WCI  22
GREEN BAY      CLOUDY    32  25  75 S8        29.86F WCI  25
MANITOWOC      NOT AVBL
APPLETON       CLOUDY    30  23  74 SE7       29.85F WCI  23
CLINTONVILLE   CLOUDY    30  23  74 CALM      29.85F
OSHKOSH        CLOUDY    31  22  69 S3        29.83F
$$

WIZ032>034-041-042-053>061-290600-
SOUTHWEST WISCONSIN

CITY           SKY/WX    TMP DP  RH WIND       PRES   REMARKS
LA CROSSE      CLOUDY    34  26  72 N5        29.80S WCI  30
SPARTA         CLOUDY    32  26  80 NE3       29.81F
VIROQUA        CLOUDY    31  28  90 CALM      29.76F
BOSCOBEL       CLOUDY    34  28  79 VRB3      29.78F
PRAIRIE DU CHI CLOUDY    32  28  82 CALM      29.76F
PLATTEVILLE    PTCLDY    32  29  90 E8        29.73F WCI  25
$$

WIZ056-057-062-063-064-067-068-290600-
SOUTH CENTRAL WISCONSIN

CITY           SKY/WX    TMP DP  RH WIND       PRES   REMARKS
REEDSBURG      CLOUDY    31  27  84 CALM      29.79F
BARABOO/DELLS  CLOUDY    31  26  82 S5        29.78F WCI  27
LONE ROCK      NOT AVBL
MINERAL POINT  MOCLDY    32  30  93 SE8       29.74F WCI  25
MADISON        LGT RAIN  32  25  75 S10       29.79F WCI  24
MIDDLETON      CLOUDY    33  27  77 SE9       29.79F WCI  26
WATERTOWN      CLOUDY    32  23  69 SE8       29.81F WCI  25
MONROE         MOCLDY    32  28  86 SE12      29.75F WCI  23
JANESVILLE     CLOUDY    34  27  75 S10       29.80F WCI  26
$$

WIZ051-052-058>065-066-070>072-290600-
SOUTHEAST WISCONSIN

CITY           SKY/WX    TMP DP  RH WIND       PRES   REMARKS
MILWAUKEE      CLOUDY    33  21  61 S12       29.84F WCI  24
WAUKESHA       CLOUDY    30  21  69 SE9       29.84F WCI  22
MILWAUKEE/TIMM CLOUDY    32  21  64 SE6       29.85F WCI  26
RACINE         CLOUDY    33  23  66 S14G22    29.86F WCI  23
BURLINGTON     CLOUDY    32  21  65 S9        29.83F WCI  24
KENOSHA        LGT RAIN  33  23  66 S13       29.84F WCI  24
FOND DU LAC    CLOUDY    31  22  69 S9        29.82F WCI  23
SHEBOYGAN      CLOUDY    33  24  69 S13       29.85F WCI  24
WEST BEND      CLOUDY    32  21  64 SE8       29.84F WCI  25
JUNEAU         CLOUDY    30  23  75 SE8       29.83F WCI  22
$$

LSZ147-162-290600-
LAKE SUPERIOR

STATION/POSITION TIME  TEMP    WIND        PRES    WAVE
                       AIR SEA DIR/SP/G            HT/PER
                 (UTC) (F)     (DEG/KT/KT) (MB)    (FT/S)
DEVILS ISLAND    0400   31     250/  9/ 10 1010.9F
PORT WING        0400   30     220/  3/  4 1010.8
SAXON HARBOR     0400   31     210/  2/  8 1010.5F
$$

LMZ867-665-643>646-290600-
LAKE MICHIGAN

STATION/POSITION TIME  TEMP    WIND        PRES    WAVE
                       AIR SEA DIR/SP/G            HT/PER
                 (UTC) (F)     (DEG/KT/KT) (MB)    (FT/S)
NORTHPORT PIER   0411   32     160/ 10/ 20 1012.9F
SISTER BAY       0413   32     180/ 15/ 18   N/A
KEWAUNEE LAKESHO 0400   33     180/ 20/ 24 1011.7F
SHEBOYGAN LAKESH 0400   34     170/ 26/ 30 1012.3F
PORT WASHINGTON  0400   34     180/ 20     1012.5F
MILWAUKEE LAKESH 0400   33     170/ 16/ 18   N/A
KENOSHA   LAKESH 0400   33     160/ 16/ 17 1011.9F
$$

TC  - TEMPERATURE IN CELSIUS
VSB - VISIBILITY IN STATUTE MILES
WCI - WIND CHILL INDEX
HX  - HEAT INDEX



USA.gov is the U.S. government's official web portal to all federal, state and local government web resources and services.